• In Hungary
  • List of Countries
  • For 7 days
  • Water Temperature
  • Satellite Maps
  • Weather Map
  • News
  • Weather Widgets
  • user-avatar
    Login

    Hourly Weather Córdoba

    Today, 21 November, Tuesday

    Time Temperature Precipitation Wind Pressure Humidity
    00:00 +19°C° 0.5 mm 4 mps 723 mmHg 83%
    01:00 +19°C° 0.5 mm 4 mps 723 mmHg 84%
    02:00 +18°C° 0.5 mm 3 mps 724 mmHg 84%
    03:00 +18°C° 0.1 mm 3 mps 724 mmHg 84%
    04:00 +18°C° 0.1 mm 3 mps 724 mmHg 85%
    05:00 +17°C° 0.1 mm 2 mps 724 mmHg 85%
    06:00 +18°C° 0.1 mm 2 mps 725 mmHg 76%
    07:00 +20°C° 0.1 mm 3 mps 725 mmHg 68%
    08:00 +21°C° 0.1 mm 3 mps 726 mmHg 60%
    09:00 +22°C° 0.1 mm 3 mps 726 mmHg 54%
    10:00 +25°C° 0.1 mm 3 mps 726 mmHg 48%
    11:00 +26°C° 0.1 mm 3 mps 726 mmHg 42%
    12:00 +26°C° 0.1 mm 3 mps 726 mmHg 40%
    13:00 +27°C° 0.1 mm 3 mps 725 mmHg 37%
    14:00 +27°C° 0.1 mm 3 mps 725 mmHg 35%
    15:00 +27°C° 0 mm 3 mps 725 mmHg 36%
    16:00 +27°C° 0 mm 3 mps 724 mmHg 37%
    17:00 +26°C° 0 mm 3 mps 724 mmHg 38%
    18:00 +25°C° 0 mm 3 mps 724 mmHg 42%
    19:00 +22°C° 0 mm 3 mps 724 mmHg 46%
    20:00 +21°C° 0 mm 2 mps 725 mmHg 50%
    21:00 +20°C° 0 mm 2 mps 725 mmHg 53%
    22:00 +19°C° 0 mm 2 mps 725 mmHg 55%
    23:00 +18°C° 0 mm 2 mps 726 mmHg 58%

    Tomorrow, 22 November, Wednesday

    Time Temperature Precipitation Wind Pressure Humidity
    00:00 +18°C° 0 mm 2 mps 726 mmHg 60%
    01:00 +17°C° 0 mm 2 mps 725 mmHg 62%
    02:00 +17°C° 0 mm 2 mps 725 mmHg 64%
    03:00 +17°C° 0 mm 2 mps 725 mmHg 66%
    04:00 +16°C° 0 mm 2 mps 725 mmHg 67%
    05:00 +16°C° 0 mm 3 mps 725 mmHg 69%
    06:00 +18°C° 0 mm 4 mps 725 mmHg 62%
    07:00 +20°C° 0 mm 4 mps 725 mmHg 55%
    08:00 +23°C° 0 mm 5 mps 725 mmHg 48%
    09:00 +26°C° 0 mm 6 mps 725 mmHg 43%
    10:00 +28°C° 0 mm 6 mps 725 mmHg 37%
    11:00 +30°C° 0 mm 6 mps 725 mmHg 32%
    12:00 +32°C° 0 mm 6 mps 724 mmHg 29%
    13:00 +33°C° 0 mm 6 mps 723 mmHg 26%
    14:00 +33°C° 0 mm 6 mps 722 mmHg 24%
    15:00 +33°C° 0 mm 6 mps 721 mmHg 24%
    16:00 +33°C° 0 mm 6 mps 721 mmHg 24%
    17:00 +33°C° 0 mm 6 mps 720 mmHg 24%
    18:00 +29°C° 0 mm 5 mps 720 mmHg 28%
    19:00 +27°C° 0 mm 4 mps 720 mmHg 32%
    20:00 +25°C° 0 mm 4 mps 720 mmHg 36%
    21:00 +23°C° 0 mm 4 mps 721 mmHg 37%
    22:00 +22°C° 0 mm 4 mps 721 mmHg 39%
    23:00 +21°C° 0 mm 4 mps 721 mmHg 40%

    Day after tomorrow, 23 November, Thursday

    Time Temperature Precipitation Wind Pressure Humidity
    00:00 +21°C° 0 mm 4 mps 721 mmHg 40%
    01:00 +21°C° 0 mm 4 mps 720 mmHg 40%
    02:00 +21°C° 0 mm 4 mps 720 mmHg 40%
    03:00 +20°C° 0 mm 4 mps 720 mmHg 39%
    04:00 +20°C° 0 mm 4 mps 720 mmHg 39%
    05:00 +19°C° 0 mm 4 mps 720 mmHg 38%
    06:00 +22°C° 0 mm 4 mps 720 mmHg 34%
    07:00 +25°C° 0 mm 5 mps 721 mmHg 31%
    08:00 +28°C° 0 mm 5 mps 721 mmHg 27%
    09:00 +30°C° 0 mm 5 mps 721 mmHg 24%
    10:00 +34°C° 0 mm 5 mps 721 mmHg 21%
    11:00 +36°C° 0 mm 5 mps 721 mmHg 18%
    12:00 +37°C° 0 mm 5 mps 720 mmHg 16%
    13:00 +39°C° 0 mm 5 mps 719 mmHg 15%
    14:00 +40°C° 0 mm 5 mps 719 mmHg 13%
    15:00 +39°C° 0 mm 5 mps 718 mmHg 14%
    16:00 +39°C° 0 mm 5 mps 718 mmHg 14%
    17:00 +39°C° 0 mm 5 mps 717 mmHg 14%
    18:00 +35°C° 0 mm 4 mps 718 mmHg 17%
    19:00 +32°C° 0 mm 4 mps 718 mmHg 21%
    20:00 +28°C° 0 mm 3 mps 718 mmHg 24%
    21:00 +27°C° 0 mm 3 mps 719 mmHg 26%
    22:00 +26°C° 0 mm 3 mps 720 mmHg 29%
    23:00 +25°C° 0 mm 3 mps 720 mmHg 31%

    24 November, Friday

    Time Temperature Precipitation Wind Pressure Humidity
    00:00 +23°C° 0 mm 4 mps 720 mmHg 40%
    01:00 +22°C° 0 mm 4 mps 720 mmHg 48%
    02:00 +21°C° 0 mm 5 mps 720 mmHg 57%
    03:00 +20°C° 0 mm 5 mps 721 mmHg 61%
    04:00 +17°C° 0 mm 5 mps 721 mmHg 66%
    05:00 +16°C° 0 mm 5 mps 721 mmHg 70%
    06:00 +17°C° 0 mm 5 mps 722 mmHg 69%
    07:00 +18°C° 0 mm 4 mps 722 mmHg 67%
    08:00 +18°C° 0 mm 4 mps 723 mmHg 66%
    09:00 +20°C° 0.1 mm 4 mps 722 mmHg 60%
    10:00 +22°C° 0.1 mm 4 mps 722 mmHg 55%
    11:00 +25°C° 0.1 mm 3 mps 722 mmHg 49%
    12:00 +26°C° 0.1 mm 4 mps 721 mmHg 47%
    13:00 +27°C° 0.1 mm 4 mps 721 mmHg 44%
    14:00 +28°C° 0.1 mm 4 mps 720 mmHg 42%
    15:00 +28°C° 0.1 mm 4 mps 720 mmHg 43%
    16:00 +28°C° 0.1 mm 4 mps 720 mmHg 44%
    17:00 +28°C° 0.1 mm 4 mps 720 mmHg 45%
    18:00 +26°C° 0.3 mm 4 mps 720 mmHg 54%
    19:00 +23°C° 0.3 mm 4 mps 721 mmHg 63%
    20:00 +21°C° 0.3 mm 3 mps 721 mmHg 71%
    21:00 +20°C° 0.8 mm 3 mps 722 mmHg 77%
    22:00 +19°C° 0.8 mm 3 mps 723 mmHg 82%
    23:00 +18°C° 0.8 mm 3 mps 724 mmHg 88%

    25 November, Saturday

    Time Temperature Precipitation Wind Pressure Humidity
    00:00 +18°C° 0.5 mm 3 mps 723 mmHg 88%
    01:00 +18°C° 0.5 mm 2 mps 723 mmHg 88%
    02:00 +17°C° 0.5 mm 2 mps 723 mmHg 88%
    03:00 +18°C° 0 mm 1 mps 723 mmHg 89%
    04:00 +18°C° 0 mm 1 mps 723 mmHg 89%
    05:00 +18°C° 0 mm 1 mps 723 mmHg 90%
    06:00 +19°C° 0 mm 1 mps 724 mmHg 84%
    07:00 +20°C° 0 mm 1 mps 724 mmHg 77%
    08:00 +21°C° 0 mm 2 mps 725 mmHg 71%
    09:00 +24°C° 0 mm 2 mps 724 mmHg 61%
    10:00 +26°C° 0 mm 2 mps 724 mmHg 52%
    11:00 +29°C° 0 mm 2 mps 724 mmHg 42%
    12:00 +30°C° 0 mm 2 mps 723 mmHg 37%
    13:00 +31°C° 0 mm 3 mps 723 mmHg 32%
    14:00 +33°C° 0 mm 3 mps 722 mmHg 27%
    15:00 +33°C° 0 mm 4 mps 722 mmHg 27%
    16:00 +33°C° 0 mm 4 mps 721 mmHg 28%
    17:00 +32°C° 0 mm 4 mps 721 mmHg 28%
    18:00 +29°C° 0 mm 3 mps 721 mmHg 35%
    19:00 +27°C° 0 mm 3 mps 721 mmHg 41%
    20:00 +25°C° 0 mm 2 mps 721 mmHg 47%
    21:00 +24°C° 0 mm 2 mps 722 mmHg 50%
    22:00 +23°C° 0 mm 2 mps 722 mmHg 52%
    23:00 +23°C° 0 mm 2 mps 722 mmHg 55%

    26 November, Sunday

    Time Temperature Precipitation Wind Pressure Humidity
    00:00 +22°C° 0 mm 1 mps 722 mmHg 57%
    01:00 +22°C° 0 mm 1 mps 721 mmHg 59%
    02:00 +21°C° 0 mm 1 mps 721 mmHg 61%
    03:00 +21°C° 0 mm 1 mps 720 mmHg 63%
    04:00 +20°C° 0 mm 1 mps 720 mmHg 64%
    05:00 +20°C° 0 mm 1 mps 720 mmHg 66%
    06:00 +23°C° 0 mm 2 mps 720 mmHg 60%
    07:00 +25°C° 0 mm 2 mps 721 mmHg 54%
    08:00 +27°C° 0 mm 3 mps 721 mmHg 48%
    09:00 +29°C° 0 mm 3 mps 720 mmHg 42%
    10:00 +32°C° 0 mm 4 mps 720 mmHg 36%
    11:00 +34°C° 0 mm 4 mps 719 mmHg 30%
    12:00 +35°C° 0 mm 4 mps 719 mmHg 28%
    13:00 +36°C° 0 mm 4 mps 718 mmHg 26%
    14:00 +37°C° 0 mm 5 mps 717 mmHg 24%
    15:00 +36°C° 0 mm 5 mps 716 mmHg 24%
    16:00 +36°C° 0 mm 5 mps 716 mmHg 24%
    17:00 +36°C° 0 mm 5 mps 715 mmHg 25%
    18:00 +33°C° 0 mm 4 mps 715 mmHg 29%
    19:00 +30°C° 0 mm 4 mps 715 mmHg 34%
    20:00 +28°C° 0 mm 4 mps 715 mmHg 38%
    21:00 +27°C° 0 mm 3 mps 715 mmHg 40%
    22:00 +26°C° 0 mm 3 mps 715 mmHg 41%
    23:00 +25°C° 0 mm 3 mps 715 mmHg 43%
    Show more